Station Historical Data
Daily Summary for October 4, 2017 Units:  English    Metric   Both
« Previous Day
Next Day »
Daily Weekly Monthly Yearly Custom
  High: Low: Average:
Temperature: 77.3 °F 61.6 °F 68.4 °F
Dew Point: 65.4 °F 51.4 °F 58.9 °F
Humidity: 87% 58% 72%
Wind Speed: 19.0mph 0.0mph 5.1mph
Wind Gust: 27.0mph - -
Wind- - SW
Pressure: 30.36 in 30.09 in -
Precipitation: 0.00 in    
Historical Graphs
 
 
Tabular Data for October 4, 2017
Time Temperature Dew Point Pressure Wind Wind Speed Wind Gust Humidity Rainfall Rate (Hourly)
00:09 64.9 °F 53.3 °F 30.35 in SSE 1.0 mph 6.0 mph 66% 0.00 in
00:14 64.7 °F 53.1 °F 30.36 in South 2.0 mph 6.0 mph 66% 0.00 in
00:19 64.7 °F 53.1 °F 30.36 in South 2.0 mph 7.0 mph 66% 0.00 in
00:24 64.7 °F 53.1 °F 30.36 in SSW 2.0 mph 8.0 mph 66% 0.00 in
00:29 64.5 °F 52.9 °F 30.36 in SSW 4.0 mph 6.0 mph 66% 0.00 in
00:34 64.5 °F 52.9 °F 30.36 in SSE 2.0 mph 5.0 mph 66% 0.00 in
00:39 64.5 °F 52.9 °F 30.36 in SSW 1.0 mph 7.0 mph 66% 0.00 in
00:44 64.6 °F 53.0 °F 30.36 in South 3.0 mph 8.0 mph 66% 0.00 in
00:49 64.9 °F 53.3 °F 30.36 in SSW 3.0 mph 8.0 mph 66% 0.00 in
00:54 65.0 °F 52.9 °F 30.35 in SSW 3.0 mph 7.0 mph 65% 0.00 in
00:59 64.9 °F 53.3 °F 30.35 in SSW 3.0 mph 11.0 mph 66% 0.00 in
01:04 65.0 °F 52.9 °F 30.35 in SSW 3.0 mph 11.0 mph 65% 0.00 in
01:09 65.1 °F 53.0 °F 30.35 in SSW 4.0 mph 10.0 mph 65% 0.00 in
01:14 65.0 °F 52.9 °F 30.35 in SSW 4.0 mph 10.0 mph 65% 0.00 in
01:19 64.9 °F 53.3 °F 30.35 in South 2.0 mph 8.0 mph 66% 0.00 in
01:24 64.8 °F 53.2 °F 30.35 in South 1.0 mph 5.0 mph 66% 0.00 in
01:29 64.8 °F 53.2 °F 30.35 in SSW 1.0 mph 6.0 mph 66% 0.00 in
01:34 64.6 °F 53.0 °F 30.35 in SSE 2.0 mph 4.0 mph 66% 0.00 in
01:39 64.5 °F 52.9 °F 30.35 in West 1.0 mph 5.0 mph 66% 0.00 in
01:44 64.6 °F 53.0 °F 30.35 in SSW 2.0 mph 6.0 mph 66% 0.00 in
01:54 64.5 °F 52.9 °F 30.35 in SSW 2.0 mph 7.0 mph 66% 0.00 in
01:59 64.5 °F 52.9 °F 30.35 in SSW 3.0 mph 7.0 mph 66% 0.00 in
02:04 64.5 °F 52.9 °F 30.35 in SSW 2.0 mph 6.0 mph 66% 0.00 in
02:09 64.5 °F 52.5 °F 30.35 in South 1.0 mph 9.0 mph 65% 0.00 in
02:14 64.4 °F 52.8 °F 30.35 in SSW 2.0 mph 9.0 mph 66% 0.00 in
02:19 64.2 °F 52.6 °F 30.35 in SSW 2.0 mph 5.0 mph 66% 0.00 in
02:24 64.0 °F 52.4 °F 30.35 in SSW 2.0 mph 4.0 mph 66% 0.00 in
02:29 63.9 °F 52.3 °F 30.35 in SSW 1.0 mph 4.0 mph 66% 0.00 in
02:34 63.7 °F 52.1 °F 30.34 in SSW 2.0 mph 5.0 mph 66% 0.00 in
02:39 63.4 °F 52.2 °F 30.34 in Calm   4.0 mph 67% 0.00 in
02:44 63.4 °F 52.2 °F 30.34 in SSW 2.0 mph 7.0 mph 67% 0.00 in
02:49 63.4 °F 52.2 °F 30.33 in SSW 2.0 mph 7.0 mph 67% 0.00 in
02:54 63.3 °F 52.2 °F 30.33 in SSW 2.0 mph 4.0 mph 67% 0.00 in
02:59 63.2 °F 52.1 °F 30.33 in SSW 2.0 mph 6.0 mph 67% 0.00 in
03:04 63.2 °F 52.1 °F 30.33 in SSW 3.0 mph 4.0 mph 67% 0.00 in
03:09 63.0 °F 52.3 °F 30.33 in Calm   4.0 mph 68% 0.00 in
03:14 62.9 °F 52.2 °F 30.33 in Calm   3.0 mph 68% 0.00 in
03:19 63.0 °F 52.3 °F 30.33 in SSW 1.0 mph 3.0 mph 68% 0.00 in
03:24 63.1 °F 52.4 °F 30.33 in SSW 1.0 mph 3.0 mph 68% 0.00 in
03:29 62.9 °F 52.2 °F 30.33 in Calm   2.0 mph 68% 0.00 in
03:34 62.7 °F 52.0 °F 30.32 in Calm   2.0 mph 68% 0.00 in
03:39 62.5 °F 51.8 °F 30.32 in Calm   2.0 mph 68% 0.00 in
03:44 62.3 °F 52.0 °F 30.32 in Calm     69% 0.00 in
03:49 62.0 °F 51.7 °F 30.32 in Calm   2.0 mph 69% 0.00 in
03:54 62.1 °F 51.8 °F 30.32 in Calm   4.0 mph 69% 0.00 in
03:59 62.2 °F 51.9 °F 30.32 in Calm   4.0 mph 69% 0.00 in
04:04 62.4 °F 51.7 °F 30.32 in Calm   3.0 mph 68% 0.00 in
04:09 62.7 °F 52.0 °F 30.32 in Calm     68% 0.00 in
04:14 62.5 °F 51.8 °F 30.32 in Calm     68% 0.00 in
04:19 62.3 °F 51.6 °F 30.32 in Calm     68% 0.00 in
04:24 62.3 °F 51.6 °F 30.32 in Calm     68% 0.00 in
04:29 62.1 °F 51.4 °F 30.32 in Calm     68% 0.00 in
04:34 62.0 °F 51.7 °F 30.31 in Calm     69% 0.00 in
04:39 61.9 °F 51.6 °F 30.31 in Calm     69% 0.00 in
04:44 61.9 °F 51.6 °F 30.31 in Calm     69% 0.00 in
04:49 61.8 °F 51.5 °F 30.31 in Calm     69% 0.00 in
04:54 61.6 °F 51.7 °F 30.31 in Calm     70% 0.00 in
04:59 61.6 °F 51.7 °F 30.31 in Calm     70% 0.00 in
05:04 61.6 °F 51.7 °F 30.31 in Calm     70% 0.00 in
05:09 61.6 °F 51.7 °F 30.31 in SSW 2.0 mph 4.0 mph 70% 0.00 in
05:14 61.8 °F 51.9 °F 30.31 in Calm   3.0 mph 70% 0.00 in
05:19 61.9 °F 52.0 °F 30.31 in SSW 1.0 mph 4.0 mph 70% 0.00 in
05:24 61.9 °F 51.6 °F 30.31 in SSW 1.0 mph 4.0 mph 69% 0.00 in
05:29 61.8 °F 51.9 °F 30.31 in SSW 1.0 mph 3.0 mph 70% 0.00 in
05:34 61.8 °F 51.9 °F 30.30 in Calm   5.0 mph 70% 0.00 in
05:39 62.1 °F 52.2 °F 30.30 in Calm   7.0 mph 70% 0.00 in
05:44 62.4 °F 52.1 °F 30.30 in SW 3.0 mph 4.0 mph 69% 0.00 in
05:49 62.7 °F 52.0 °F 30.30 in SSW 2.0 mph 4.0 mph 68% 0.00 in
05:54 63.1 °F 52.4 °F 30.30 in SW 1.0 mph 4.0 mph 68% 0.00 in
05:59 63.5 °F 52.3 °F 30.30 in Calm   6.0 mph 67% 0.00 in
06:04 63.5 °F 52.3 °F 30.29 in Calm   5.0 mph 67% 0.00 in
06:09 63.7 °F 52.1 °F 30.29 in SSW 1.0 mph 4.0 mph 66% 0.00 in
06:14 63.8 °F 52.6 °F 30.29 in SSW 3.0 mph 6.0 mph 67% 0.00 in
06:19 63.8 °F 52.6 °F 30.29 in SSW 2.0 mph 7.0 mph 67% 0.00 in
06:24 63.9 °F 52.3 °F 30.29 in SW 2.0 mph 7.0 mph 66% 0.00 in
06:29 63.8 °F 52.2 °F 30.29 in SSW 2.0 mph 5.0 mph 66% 0.00 in
06:34 63.8 °F 52.6 °F 30.29 in SW 2.0 mph 7.0 mph 67% 0.00 in
06:39 63.7 °F 52.5 °F 30.29 in SW 2.0 mph 7.0 mph 67% 0.00 in
06:44 63.7 °F 52.5 °F 30.29 in SSW 3.0 mph 4.0 mph 67% 0.00 in
06:49 63.6 °F 52.4 °F 30.29 in SSW 2.0 mph 5.0 mph 67% 0.00 in
06:54 63.7 °F 52.5 °F 30.29 in SW 3.0 mph 4.0 mph 67% 0.00 in
06:59 63.7 °F 52.9 °F 30.29 in WSW 3.0 mph 5.0 mph 68% 0.00 in
07:04 63.8 °F 53.0 °F 30.29 in SW 1.0 mph 7.0 mph 68% 0.00 in
07:09 63.8 °F 53.0 °F 30.28 in SW 1.0 mph 5.0 mph 68% 0.00 in
07:14 63.8 °F 53.0 °F 30.28 in SW 2.0 mph 5.0 mph 68% 0.00 in
07:19 63.8 °F 53.0 °F 30.28 in SSW 3.0 mph 7.0 mph 68% 0.00 in
07:24 63.9 °F 53.1 °F 30.28 in SSW 3.0 mph 7.0 mph 68% 0.00 in
07:29 64.0 °F 53.2 °F 30.28 in SSW 2.0 mph 7.0 mph 68% 0.00 in
07:34 64.1 °F 53.3 °F 30.28 in SSW 2.0 mph 7.0 mph 68% 0.00 in
07:39 64.2 °F 53.4 °F 30.28 in SW 2.0 mph 5.0 mph 68% 0.00 in
07:44 64.3 °F 53.9 °F 30.28 in South 2.0 mph 6.0 mph 69% 0.00 in
07:49 64.4 °F 54.0 °F 30.28 in SSW 5.0 mph 7.0 mph 69% 0.00 in
07:54 64.5 °F 54.1 °F 30.28 in SSW 2.0 mph 7.0 mph 69% 0.00 in
07:59 64.8 °F 54.4 °F 30.28 in SW 2.0 mph 8.0 mph 69% 0.00 in
08:04 65.1 °F 54.7 °F 30.27 in West 2.0 mph 7.0 mph 69% 0.00 in
08:09 65.4 °F 55.0 °F 30.27 in SSW 6.0 mph 9.0 mph 69% 0.00 in
08:14 65.8 °F 54.9 °F 30.27 in WSW 5.0 mph 11.0 mph 68% 0.00 in
08:19 66.4 °F 55.5 °F 30.27 in SW 5.0 mph 11.0 mph 68% 0.00 in
08:24 66.8 °F 55.5 °F 30.27 in SW 5.0 mph 10.0 mph 67% 0.00 in
08:29 67.2 °F 55.9 °F 30.27 in SW 5.0 mph 10.0 mph 67% 0.00 in
08:34 67.5 °F 55.7 °F 30.27 in SW 4.0 mph 11.0 mph 66% 0.00 in
08:39 68.3 °F 56.1 °F 30.27 in WSW 8.0 mph 12.0 mph 65% 0.00 in
08:44 69.0 °F 56.7 °F 30.27 in SW 3.0 mph 11.0 mph 65% 0.00 in
08:49 69.5 °F 56.8 °F 30.27 in SW 5.0 mph 11.0 mph 64% 0.00 in
08:54 69.8 °F 57.1 °F 30.27 in SW 5.0 mph 11.0 mph 64% 0.00 in
08:59 70.1 °F 56.9 °F 30.26 in SW 5.0 mph 9.0 mph 63% 0.00 in
09:04 70.4 °F 57.2 °F 30.26 in SW 5.0 mph 10.0 mph 63% 0.00 in
09:09 70.8 °F 57.1 °F 30.26 in SW 10.0 mph 12.0 mph 62% 0.00 in
09:14 71.0 °F 57.3 °F 30.26 in SW 7.0 mph 15.0 mph 62% 0.00 in
09:19 71.5 °F 57.3 °F 30.27 in WSW 5.0 mph 15.0 mph 61% 0.00 in
09:24 71.7 °F 57.5 °F 30.27 in SSW 7.0 mph 12.0 mph 61% 0.00 in
09:29 71.9 °F 57.7 °F 30.27 in West 4.0 mph 10.0 mph 61% 0.00 in
09:34 71.9 °F 57.7 °F 30.26 in WSW 2.0 mph 17.0 mph 61% 0.00 in
09:39 72.2 °F 57.5 °F 30.26 in SW 6.0 mph 13.0 mph 60% 0.00 in
09:44 72.6 °F 57.9 °F 30.26 in WSW 9.0 mph 12.0 mph 60% 0.00 in
09:49 72.2 °F 57.5 °F 30.26 in SW 6.0 mph 14.0 mph 60% 0.00 in
09:54 72.1 °F 57.9 °F 30.27 in SW 7.0 mph 15.0 mph 61% 0.00 in
09:59 72.0 °F 58.3 °F 30.26 in West 2.0 mph 10.0 mph 62% 0.00 in
10:04 71.7 °F 58.0 °F 30.26 in SW 7.0 mph 13.0 mph 62% 0.00 in
10:14 71.9 °F 58.2 °F 30.26 in WSW 6.0 mph 14.0 mph 62% 0.00 in
10:19 72.0 °F 58.3 °F 30.26 in SW 6.0 mph 14.0 mph 62% 0.00 in
10:24 72.0 °F 58.3 °F 30.26 in SW 5.0 mph 11.0 mph 62% 0.00 in
10:29 72.0 °F 58.3 °F 30.25 in SW 6.0 mph 11.0 mph 62% 0.00 in
10:34 72.1 °F 58.4 °F 30.25 in West 5.0 mph 12.0 mph 62% 0.00 in
10:39 72.1 °F 58.4 °F 30.24 in SSW 5.0 mph 16.0 mph 62% 0.00 in
10:44 72.8 °F 59.5 °F 30.24 in SW 7.0 mph 16.0 mph 63% 0.00 in
10:49 74.1 °F 59.8 °F 30.24 in SW 7.0 mph 15.0 mph 61% 0.00 in
10:54 74.6 °F 59.8 °F 30.24 in SW 7.0 mph 15.0 mph 60% 0.00 in
11:04 75.8 °F 60.4 °F 30.24 in West 4.0 mph 22.0 mph 59% 0.00 in
11:09 75.6 °F 59.8 °F 30.23 in SSW 8.0 mph 15.0 mph 58% 0.00 in
11:14 75.6 °F 60.3 °F 30.23 in WSW 9.0 mph 14.0 mph 59% 0.00 in
11:19 75.6 °F 60.7 °F 30.23 in SW 7.0 mph 19.0 mph 60% 0.00 in
11:24 75.9 °F 60.5 °F 30.23 in SW 7.0 mph 19.0 mph 59% 0.00 in
11:29 75.8 °F 60.4 °F 30.23 in SW 6.0 mph 14.0 mph 59% 0.00 in
11:34 76.0 °F 61.1 °F 30.22 in WSW 13.0 mph 18.0 mph 60% 0.00 in
11:39 76.2 °F 60.8 °F 30.23 in West 10.0 mph 14.0 mph 59% 0.00 in
11:44 75.5 °F 60.6 °F 30.22 in SW 10.0 mph 20.0 mph 60% 0.00 in
11:49 76.4 °F 61.5 °F 30.22 in SW 10.0 mph 20.0 mph 60% 0.00 in
11:54 77.0 °F 62.0 °F 30.21 in SW 9.0 mph 17.0 mph 60% 0.00 in
11:59 77.3 °F 61.9 °F 30.21 in SW 9.0 mph 17.0 mph 59% 0.00 in
12:04 77.1 °F 61.7 °F 30.20 in SW 12.0 mph 17.0 mph 59% 0.00 in
12:09 77.3 °F 61.9 °F 30.20 in WSW 10.0 mph 19.0 mph 59% 0.00 in
12:14 77.2 °F 61.8 °F 30.20 in SSW 7.0 mph 21.0 mph 59% 0.00 in
12:19 76.8 °F 61.4 °F 30.20 in WSW 10.0 mph 18.0 mph 59% 0.00 in
12:24 76.7 °F 61.8 °F 30.20 in West 7.0 mph 14.0 mph 60% 0.00 in
12:29 76.7 °F 61.8 °F 30.20 in SSW 11.0 mph 20.0 mph 60% 0.00 in
12:34 76.4 °F 62.0 °F 30.19 in SW 16.0 mph 17.0 mph 61% 0.00 in
12:39 76.6 °F 62.1 °F 30.18 in WSW 12.0 mph 19.0 mph 61% 0.00 in
12:44 76.4 °F 62.4 °F 30.19 in SW 9.0 mph 19.0 mph 62% 0.00 in
12:49 76.3 °F 62.3 °F 30.18 in SW 9.0 mph 19.0 mph 62% 0.00 in
12:54 76.7 °F 62.2 °F 30.18 in SW 9.0 mph 19.0 mph 61% 0.00 in
12:59 76.4 °F 62.4 °F 30.18 in WSW 9.0 mph 20.0 mph 62% 0.00 in
13:04 76.2 °F 62.7 °F 30.18 in WSW 9.0 mph 20.0 mph 63% 0.00 in
13:09 75.9 °F 62.8 °F 30.18 in West 10.0 mph 19.0 mph 64% 0.00 in
13:14 75.4 °F 62.8 °F 30.18 in WNW 14.0 mph 18.0 mph 65% 0.00 in
13:19 75.2 °F 63.1 °F 30.18 in SW 11.0 mph 17.0 mph 66% 0.00 in
13:24 75.3 °F 62.7 °F 30.18 in West 5.0 mph 18.0 mph 65% 0.00 in
13:29 75.3 °F 63.2 °F 30.17 in SW 9.0 mph 17.0 mph 66% 0.00 in
13:34 75.1 °F 63.0 °F 30.17 in WSW 10.0 mph 20.0 mph 66% 0.00 in
13:39 74.7 °F 63.4 °F 30.18 in WSW 9.0 mph 19.0 mph 68% 0.00 in
13:44 74.5 °F 63.2 °F 30.18 in WSW 9.0 mph 19.0 mph 68% 0.00 in
13:49 74.3 °F 63.1 °F 30.17 in WSW 10.0 mph 22.0 mph 68% 0.00 in
13:54 74.4 °F 63.6 °F 30.17 in WSW 10.0 mph 22.0 mph 69% 0.00 in
13:59 74.3 °F 63.5 °F 30.17 in WSW 9.0 mph 21.0 mph 69% 0.00 in
14:04 74.3 °F 63.5 °F 30.16 in WSW 10.0 mph 18.0 mph 69% 0.00 in
14:09 74.1 °F 63.3 °F 30.16 in SW 6.0 mph 19.0 mph 69% 0.00 in
14:14 73.9 °F 63.5 °F 30.16 in WSW 10.0 mph 22.0 mph 70% 0.00 in
14:19 73.6 °F 63.2 °F 30.16 in WSW 10.0 mph 22.0 mph 70% 0.00 in
14:24 73.3 °F 62.9 °F 30.16 in WNW 8.0 mph 20.0 mph 70% 0.00 in
14:29 72.8 °F 63.6 °F 30.17 in WSW 9.0 mph 20.0 mph 73% 0.02 in
14:34 70.9 °F 63.0 °F 30.16 in WSW 4.0 mph 20.0 mph 76% 0.02 in
14:39 69.3 °F 62.9 °F 30.17 in WSW 7.0 mph 14.0 mph 80% 0.02 in
14:44 68.8 °F 63.4 °F 30.16 in WSW 8.0 mph 14.0 mph 83% 0.02 in
14:49 68.7 °F 63.3 °F 30.15 in WSW 7.0 mph 14.0 mph 83% 0.02 in
14:54 68.9 °F 63.5 °F 30.15 in WSW 6.0 mph 12.0 mph 83% 0.03 in
14:59 69.1 °F 63.7 °F 30.15 in SW 4.0 mph 12.0 mph 83% 0.03 in
15:04 69.4 °F 63.7 °F 30.15 in West 10.0 mph 14.0 mph 82% 0.03 in
15:14 69.3 °F 63.2 °F 30.14 in SW 7.0 mph 17.0 mph 81% 0.03 in
15:19 69.1 °F 63.4 °F 30.14 in WSW 7.0 mph 17.0 mph 82% 0.03 in
15:24 69.1 °F 63.0 °F 30.14 in WSW 7.0 mph 14.0 mph 81% 0.03 in
15:29 69.3 °F 63.2 °F 30.14 in SW 7.0 mph 14.0 mph 81% 0.01 in
15:34 69.5 °F 63.4 °F 30.13 in South 9.0 mph 13.0 mph 81% 0.01 in
15:39 69.5 °F 63.4 °F 30.13 in WSW 4.0 mph 21.0 mph 81% 0.01 in
15:44 69.4 °F 63.7 °F 30.13 in SW 9.0 mph 21.0 mph 82% 0.04 in
15:49 69.0 °F 63.6 °F 30.14 in SW 8.0 mph 27.0 mph 83% 0.05 in
15:54 68.6 °F 63.6 °F 30.13 in SW 13.0 mph 20.0 mph 84% 0.05 in
16:04 68.4 °F 64.0 °F 30.13 in WSW 13.0 mph 18.0 mph 86% 0.05 in
16:09 68.5 °F 64.1 °F 30.12 in WSW 10.0 mph 15.0 mph 86% 0.06 in
16:14 68.6 °F 64.2 °F 30.12 in WSW 7.0 mph 15.0 mph 86% 0.06 in
16:19 68.8 °F 64.4 °F 30.12 in SW 6.0 mph 14.0 mph 86% 0.06 in
16:24 69.0 °F 64.3 °F 30.12 in SW 6.0 mph 15.0 mph 85% 0.06 in
16:34 69.7 °F 64.6 °F 30.12 in SW 7.0 mph 14.0 mph 84% 0.06 in
16:39 70.2 °F 64.4 °F 30.12 in SW 7.0 mph 15.0 mph 82% 0.06 in
16:44 70.7 °F 64.9 °F 30.12 in WSW 5.0 mph 13.0 mph 82% 0.03 in
16:49 71.1 °F 65.0 °F 30.11 in SSW 8.0 mph 20.0 mph 81% 0.02 in
16:54 71.2 °F 65.1 °F 30.11 in West 9.0 mph 20.0 mph 81% 0.01 in
16:59 71.1 °F 64.6 °F 30.11 in West 4.0 mph 13.0 mph 80% 0.01 in
17:04 71.1 °F 64.6 °F 30.11 in SSW 5.0 mph 15.0 mph 80% 0.01 in
17:09 70.9 °F 64.4 °F 30.11 in SW 19.0 mph 19.0 mph 80% 0.00 in
17:14 70.8 °F 64.7 °F 30.10 in WSW 9.0 mph 21.0 mph 81% 0.00 in
17:19 70.3 °F 64.5 °F 30.11 in SW 8.0 mph 21.0 mph 82% 0.00 in
17:24 70.2 °F 64.8 °F 30.10 in WSW 7.0 mph 16.0 mph 83% 0.00 in
17:29 70.1 °F 64.7 °F 30.11 in WSW 8.0 mph 17.0 mph 83% 0.00 in
17:34 70.2 °F 64.8 °F 30.10 in WSW 8.0 mph 17.0 mph 83% 0.00 in
17:39 70.3 °F 64.9 °F 30.11 in WSW 7.0 mph 20.0 mph 83% 0.00 in
17:44 70.5 °F 64.7 °F 30.10 in WSW 14.0 mph 17.0 mph 82% 0.00 in
17:49 70.6 °F 64.8 °F 30.10 in WSW 8.0 mph 20.0 mph 82% 0.00 in
17:54 70.5 °F 65.1 °F 30.10 in WSW 8.0 mph 20.0 mph 83% 0.00 in
17:59 70.3 °F 64.9 °F 30.10 in WSW 13.0 mph 14.0 mph 83% 0.00 in
18:04 70.2 °F 64.8 °F 30.10 in WSW 4.0 mph 17.0 mph 83% 0.00 in
18:14 70.3 °F 64.9 °F 30.11 in SW 9.0 mph 19.0 mph 83% 0.00 in
18:19 70.3 °F 64.9 °F 30.10 in SW 10.0 mph 20.0 mph 83% 0.00 in
18:24 70.4 °F 64.6 °F 30.10 in WSW 9.0 mph 20.0 mph 82% 0.00 in
18:29 70.5 °F 64.7 °F 30.10 in WSW 9.0 mph 19.0 mph 82% 0.00 in
18:34 70.6 °F 64.8 °F 30.10 in WSW 15.0 mph 23.0 mph 82% 0.00 in
18:39 70.7 °F 64.9 °F 30.10 in West 6.0 mph 17.0 mph 82% 0.00 in
18:44 70.7 °F 64.9 °F 30.10 in WSW 5.0 mph 20.0 mph 82% 0.00 in
18:49 70.6 °F 64.8 °F 30.09 in SW 9.0 mph 24.0 mph 82% 0.00 in
18:59 70.6 °F 64.8 °F 30.10 in WSW 10.0 mph 19.0 mph 82% 0.00 in
19:04 70.6 °F 64.8 °F 30.10 in WSW 10.0 mph 21.0 mph 82% 0.00 in
19:09 70.6 °F 64.8 °F 30.10 in WSW 9.0 mph 21.0 mph 82% 0.00 in
19:14 70.6 °F 64.8 °F 30.10 in WSW 9.0 mph 20.0 mph 82% 0.00 in
19:19 70.6 °F 65.2 °F 30.09 in SW 11.0 mph 17.0 mph 83% 0.00 in
19:24 70.6 °F 65.2 °F 30.09 in WSW 14.0 mph 21.0 mph 83% 0.00 in
19:29 70.7 °F 65.3 °F 30.09 in NW 9.0 mph 16.0 mph 83% 0.00 in
19:34 70.8 °F 65.0 °F 30.09 in SW 15.0 mph 19.0 mph 82% 0.00 in
19:39 70.9 °F 65.1 °F 30.09 in WSW 11.0 mph 15.0 mph 82% 0.00 in
19:44 71.1 °F 65.3 °F 30.10 in WSW 12.0 mph 17.0 mph 82% 0.00 in
19:49 71.3 °F 65.2 °F 30.09 in WSW 9.0 mph 24.0 mph 81% 0.00 in
19:54 71.4 °F 65.3 °F 30.10 in WSW 9.0 mph 24.0 mph 81% 0.00 in
19:59 71.2 °F 65.4 °F 30.10 in WSW 9.0 mph 24.0 mph 82% 0.00 in
20:09 71.2 °F 65.4 °F 30.10 in WSW 9.0 mph 20.0 mph 82% 0.00 in
20:14 71.1 °F 65.3 °F 30.10 in SW 8.0 mph 17.0 mph 82% 0.00 in
20:19 71.0 °F 65.2 °F 30.10 in WSW 9.0 mph 17.0 mph 82% 0.00 in
20:24 71.0 °F 65.2 °F 30.10 in WSW 8.0 mph 18.0 mph 82% 0.00 in
20:29 70.9 °F 65.1 °F 30.10 in WSW 7.0 mph 18.0 mph 82% 0.00 in
20:34 70.7 °F 65.3 °F 30.10 in WSW 8.0 mph 16.0 mph 83% 0.00 in
20:39 70.6 °F 65.2 °F 30.10 in SW 6.0 mph 12.0 mph 83% 0.00 in
20:44 70.4 °F 65.0 °F 30.10 in WSW 2.0 mph 12.0 mph 83% 0.00 in
20:49 70.3 °F 64.9 °F 30.10 in WSW 8.0 mph 18.0 mph 83% 0.00 in
20:54 70.2 °F 65.1 °F 30.10 in WSW 6.0 mph 18.0 mph 84% 0.00 in
20:59 70.2 °F 65.1 °F 30.10 in WSW 6.0 mph 15.0 mph 84% 0.00 in
21:04 70.2 °F 65.1 °F 30.10 in SSW 7.0 mph 12.0 mph 84% 0.00 in
21:09 70.1 °F 65.0 °F 30.10 in West 1.0 mph 9.0 mph 84% 0.00 in
21:14 70.1 °F 65.4 °F 30.10 in SW 8.0 mph 15.0 mph 85% 0.00 in
21:19 70.1 °F 65.4 °F 30.10 in SW 4.0 mph 10.0 mph 85% 0.00 in
21:24 70.1 °F 65.4 °F 30.10 in WSW 5.0 mph 11.0 mph 85% 0.00 in
21:29 70.0 °F 65.3 °F 30.10 in WSW 5.0 mph 12.0 mph 85% 0.00 in
21:34 70.0 °F 65.3 °F 30.11 in WSW 5.0 mph 12.0 mph 85% 0.00 in
21:39 70.0 °F 65.3 °F 30.11 in WSW 5.0 mph 11.0 mph 85% 0.00 in
21:44 70.0 °F 65.3 °F 30.12 in West 5.0 mph 13.0 mph 85% 0.00 in
21:49 69.6 °F 64.2 °F 30.11 in NW 4.0 mph 11.0 mph 83% 0.00 in
21:54 68.9 °F 63.5 °F 30.13 in WNW 2.0 mph 12.0 mph 83% 0.00 in
21:59 68.4 °F 63.0 °F 30.13 in NNW 2.0 mph 8.0 mph 83% 0.00 in
22:04 68.0 °F 62.6 °F 30.14 in NW 3.0 mph 5.0 mph 83% 0.00 in
22:09 67.4 °F 62.1 °F 30.13 in North 1.0 mph 8.0 mph 83% 0.00 in
22:14 67.0 °F 61.3 °F 30.13 in North 2.0 mph 10.0 mph 82% 0.00 in
22:19 66.6 °F 61.3 °F 30.14 in NW 6.0 mph 8.0 mph 83% 0.00 in
22:34 65.9 °F 60.9 °F 30.14 in NNW 2.0 mph 7.0 mph 84% 0.00 in
22:39 65.7 °F 60.7 °F 30.14 in NW 1.0 mph 7.0 mph 84% 0.00 in
22:44 65.4 °F 60.8 °F 30.14 in North 1.0 mph 7.0 mph 85% 0.00 in
22:49 65.1 °F 60.5 °F 30.14 in NNW 5.0 mph 8.0 mph 85% 0.00 in
22:54 64.8 °F 60.5 °F 30.14 in NNW 2.0 mph 8.0 mph 86% 0.00 in
22:59 64.6 °F 60.3 °F 30.14 in NNW 2.0 mph 7.0 mph 86% 0.00 in
23:04 64.3 °F 60.0 °F 30.14 in North 2.0 mph 6.0 mph 86% 0.00 in
23:09 64.2 °F 59.9 °F 30.14 in NNW 3.0 mph 5.0 mph 86% 0.00 in
23:19 64.0 °F 60.1 °F 30.14 in North 2.0 mph 6.0 mph 87% 0.00 in
23:24 63.9 °F 59.6 °F 30.14 in NW 1.0 mph 7.0 mph 86% 0.00 in
23:29 63.9 °F 60.0 °F 30.14 in North 1.0 mph 7.0 mph 87% 0.00 in
23:34 63.8 °F 59.9 °F 30.15 in NNE 1.0 mph 4.0 mph 87% 0.00 in
23:39 63.7 °F 59.8 °F 30.15 in NNW 1.0 mph 4.0 mph 87% 0.00 in
23:44 63.6 °F 59.7 °F 30.15 in Calm   5.0 mph 87% 0.00 in
23:54 63.2 °F 59.3 °F 30.16 in Calm   4.0 mph 87% 0.00 in
23:59 63.0 °F 58.7 °F 30.16 in Calm   4.0 mph 86% 0.00 in
Buffalo, New York, USA
Compliments of Weather Underground - 2.25 mb